Location: Alston School (historical)
(35.5076°N, 89.8251°W)
Time: 17:04:54
(UTC+00:00)

Cosmos 2058 Rocket - Pass Details

Date: 20 March 2026
Orbit: 604 x 632 km, 82.5° (Epoch: 18 April)

Event Time Altitude Azimuth Distance (km) Brightness Sun altitude
Rises 11:31:55 0° 186° (S) 2,887 6.4 -7.1°
Reaches altitude 10° 11:34:07 10° 186° (S) 1,989 5.6 -6.7°
Maximum altitude 11:38:32 88° 270° (W) 633 3.1 -5.8°
Drops below altitude 10° 11:43:01 10° 6° (N) 2,016 5.8 -4.9°
Sets 11:45:16 0° 7° (N) 2,929 6.7 -4.4°
